Temperature
15 15 15 16 19 20 21 20 19 19 19 18 17 18 20 21 21 20 15 15 15 15 15 15 15 15 15 15 15 15 15 15 15 15 15 15 15 15 15 15 15 15 15 15 15 15 15 15 15
15 15 15 17 20 21 21 20 19 19 18 16 16 17 18 19 17 15 15 15 15 14 14 14 15 15 15 15 14 14 15 15 15 15 15 15 15 15 15 15 15 15 15 15 15 15 15 15 15
15 15 16 19 20 21 21 19 19 18 16 16 17 17 18 17 15 15 15 15 14 14 14 14 14 14 14 14 14 14 14 14 15 15 15 15 15 15 15 15 15 15 15 15 15 15 15 14 14
15 15 17 19 19 19 19 19 17 17 16 16 17 17 16 15 14 14 15 14 14 14 14 14 14 14 14 14 14 14 14 14 14 15 14 14 15 14 14 14 15 15 15 15 14 14 14 14 14
15 16 18 18 18 18 18 17 16 18 18 17 16 18 16 14 14 14 14 14 13 13 14 14 14 14 14 14 14 14 14 14 14 14 14 14 14 14 14 14 14 14 14 14 14 14 14 14 14
15 17 18 19 19 18 17 16 16 17 17 16 16 17 16 14 14 14 14 14 13 13 13 13 13 13 13 13 14 14 14 14 14 14 14 14 14 14 14 14 14 14 14 14 14 14 14 14 14
16 17 18 18 18 18 17 15 16 17 17 16 16 17 16 13 13 14 14 13 13 13 13 13 13 13 13 13 13 13 14 14 14 14 14 14 14 14 14 14 14 14 14 14 14 14 14 14 13
14 17 17 17 17 17 16 15 15 16 16 15 14 16 16 13 13 13 13 13 13 13 13 13 13 13 13 13 13 13 13 13 13 13 13 13 13 14 13 13 14 14 14 14 14 13 13 13 13
13 16 17 17 17 17 15 15 14 13 14 13 13 14 13 13 13 13 13 13 13 13 13 13 13 12 12 12 13 13 13 13 13 13 13 13 13 13 13 13 13 13 13 13 13 13 13 13 13
14 16 16 16 16 16 15 15 14 14 14 14 13 12 13 13 12 12 12 12 12 12 12 12 12 12 12 12 12 12 12 12 12 12 12 12 12 12 13 13 13 13 13 13 13 13 13 13 13
14 15 14 14 13 13 14 14 13 14 15 14 14 13 12 12 12 12 12 12 12 12 12 12 12 12 12 12 12 12 12 12 12 12 12 12 12 12 12 12 12 12 12 13 13 12 12 12 12
13 13 13 13 11 12 13 13 13 13 14 13 12 12 11 11 11 11 11 12 12 12 12 12 12 12 12 12 12 12 12 12 12 12 12 12 12 12 12 12 12 12 12 12 12 12 12 12 12
13 12 11 11 11 11 11 12 12 12 12 11 11 11 11 11 11 11 11 11 11 11 12 12 12 11 11 11 11 11 11 12 12 12 12 12 12 12 12 12 12 12 12 12 12 12 12 11 11
12 11 11 11 11 11 11 12 11 11 11 10 10 10 10 10 10 10 11 11 11 11 11 11 11 11 11 11 11 11 11 11 11 11 11 11 11 11 11 11 11 11 12 11 11 11 11 11 11
10 11 12 11 11 11 11 12 12 11 10 10 10 10 10 10 10 10 11 11 11 11 11 11 11 11 11 11 11 11 11 11 11 11 11 11 11 11 11 11 11 11 11 11 11 11 11 11 11
11 12 13 12 11 11 11 13 13 10 10 10 10 10 9 9 10 10 10 10 11 11 11 10 10 10 10 10 10 10 10 10 11 11 11 11 11 11 11 11 11 11 11 11 11 11 10 10 10
12 12 12 12 11 11 11 12 12 10 9 10 10 9 9 9 9 10 10 10 10 10 10 10 10 10 10 10 10 10 10 10 10 10 10 10 10 10 10 10 11 11 10 10 10 10 10 10 10
11 11 11 11 11 10 10 11 11 10 9 10 10 9 9 9 9 9 9 10 10 10 10 10 10 10 10 9 9 9 9 9 10 10 10 10 10 10 10 10 10 10 10 10 10 10 10 10 10
10 10 11 11 10 9 10 11 11 10 9 9 9 9 8 8 8 8 9 9 9 9 10 9 10 9 9 9 9 9 9 9 9 9 9 9 10 10 10 10 10 10 10 10 10 9 9 9 9
9 10 10 10 9 9 9 10 11 10 9 8 8 8 8 8 7 8 8 9 9 9 9 9 9 9 9 9 9 9 9 9 9 9 9 9 9 9 9 9 9 9 9 9 9 9 9 9 9
9 9 9 9 9 9 9 11 11 10 8 8 7 7 7 7 7 7 7 8 8 8 9 9 9 9 9 9 9 9 8 8 8 8 9 9 9 9 9 9 9 9 9 9 9 9 9 9 8
9 8 8 8 8 10 9 10 11 10 9 8 7 7 6 6 6 6 6 7 7 8 8 8 8 8 8 8 8 8 8 8 8 8 8 8 8 8 8 8 8 8 8 8 8 8 8 8 8
8 7 7 7 8 8 9 9 10 9 8 8 7 6 5 5 5 5 5 6 7 7 8 8 8 8 8 8 8 8 8 8 8 8 8 8 8 8 8 8 8 8 8 8 8 8 8 8 8
6 7 7 7 8 8 9 9 9 8 7 7 6 5 4 4 4 4 5 5 6 6 7 7 7 7 7 8 8 8 8 7 7 8 8 7 7 7 7 7 7 7 7 7 7 8 8 8 8
6 7 8 8 8 9 8 7 7 6 5 5 5 4 4 3 3 3 4 5 5 5 6 6 6 7 7 7 7 7 7 7 7 7 7 7 7 7 7 7 7 7 7 7 7 7 7 7 7
6 6 7 7 8 9 7 7 6 5 4 3 3 3 3 2 2 3 3 4 4 5 5 5 6 6 6 7 7 7 7 6 7 7 7 7 7 7 7 7 7 7 7 7 7 7 7 7 7
5 6 6 6 6 6 7 6 5 4 4 3 2 2 2 2 1 2 2 3 3 4 4 4 5 5 6 6 6 6 6 6 6 6 6 6 6 6 6 6 6 6 6 6 7 7 7 7 7
4 5 5 5 5 6 7 6 5 3 3 3 2 2 1 1 1 1 2 2 2 3 3 4 4 4 5 5 5 5 5 5 6 6 6 6 6 6 6 6 6 6 6 6 6 6 6 6 6
3 3 4 5 5 5 5 5 3 3 2 2 2 1 0 0 0 0 1 1 2 2 3 3 3 4 4 4 4 5 5 5 5 5 5 5 5 5 5 5 5 5 5 6 6 6 6 6 6
3 3 3 3 4 4 4 4 2 2 2 1 1 0 -0 -0 -0 -0 -0 0 1 1 2 2 2 3 3 4 4 4 4 4 4 4 5 5 5 5 5 5 5 5 5 5 5 5 5 5 5
Wind_Speed
2 1 2 3 4 4 6 4 3 4 3 2 2 3 4 4 3 1 3 4 7 9 10 11 10 10 9 9 9 9 9 8 8 8 8 8 8 8 7 7 7 7 7 8 9 9 10 10 10
1 1 2 3 5 7 5 5 6 4 2 3 3 3 3 3 1 2 3 5 7 9 10 10 11 10 9 9 9 9 8 8 7 7 7 7 8 8 7 7 7 7 7 7 8 9 10 10 10
2 1 2 3 5 6 3 3 4 3 3 3 3 3 3 1 1 1 2 6 8 9 9 10 10 10 9 8 8 8 8 7 7 7 7 7 7 7 7 7 7 7 7 7 8 9 9 10 10
2 2 2 4 7 6 3 1 2 4 3 4 3 3 2 0 1 1 4 7 8 9 9 9 9 9 9 8 8 7 7 7 7 7 6 6 6 6 7 7 7 7 7 8 8 9 9 9 10
1 3 4 6 8 5 4 3 3 5 4 4 5 3 2 1 1 2 5 7 8 8 7 9 9 9 8 7 7 7 6 6 7 7 6 6 6 6 7 7 8 7 7 8 8 9 9 9 9
3 3 5 8 8 5 5 5 5 6 5 3 4 4 2 2 3 3 5 6 6 7 6 7 8 8 7 7 6 6 6 6 6 6 6 6 6 6 6 7 7 7 7 7 8 9 9 9 9
3 4 6 7 7 6 4 4 6 6 7 5 3 4 2 3 3 4 5 6 6 6 6 6 7 7 7 7 7 6 6 5 5 6 5 5 6 6 6 7 7 7 7 7 8 9 9 9 9
2 3 5 6 7 6 3 4 3 6 5 2 3 4 2 2 3 4 5 5 6 5 5 5 6 6 6 7 7 7 6 5 5 5 5 5 5 5 6 6 7 7 7 7 7 8 9 9 9
3 5 8 7 6 4 3 4 2 2 3 3 3 3 2 3 5 6 6 6 5 5 5 5 5 5 5 6 6 6 6 5 5 5 6 5 5 5 5 5 6 6 7 6 7 8 8 9 8
4 7 7 4 4 3 3 4 3 3 5 5 5 3 1 4 7 8 8 8 8 7 6 5 5 5 5 5 5 5 5 5 4 5 5 5 4 4 5 6 6 6 6 6 6 6 7 7 7
4 6 5 4 4 4 4 4 3 6 7 7 7 5 4 5 7 8 9 9 9 8 7 6 6 5 5 4 4 4 4 4 3 4 5 4 4 4 4 4 5 5 6 5 5 5 5 5 5
4 5 5 4 3 4 5 4 5 8 8 4 5 4 5 7 8 9 9 9 8 8 8 6 6 6 5 4 4 4 3 3 3 3 4 4 3 3 3 3 4 4 3 3 3 3 4 4 5
7 5 5 5 5 5 6 8 8 9 8 5 3 3 6 8 9 9 8 8 8 8 8 7 7 6 6 5 4 4 3 3 3 3 3 3 3 3 3 3 3 3 3 3 3 3 4 4 4
4 5 5 5 5 4 6 8 7 9 6 5 5 6 6 7 8 8 8 8 9 9 8 7 7 7 6 6 5 4 4 4 4 4 4 4 3 3 3 3 3 3 3 3 3 4 3 3 3
3 5 6 6 6 4 5 9 9 8 6 7 7 7 7 7 7 9 9 9 9 9 8 8 7 7 7 6 6 5 4 4 4 4 4 4 4 3 3 3 3 3 3 3 3 4 3 3 3
4 5 6 4 4 4 5 11 6 4 6 8 8 7 7 6 7 8 8 8 8 7 8 8 6 6 6 6 5 4 4 4 4 4 4 4 4 4 3 3 2 3 3 3 3 3 4 3 3
3 6 8 6 4 4 7 10 6 3 5 7 7 7 6 6 5 6 6 6 6 7 7 7 7 7 6 5 4 4 4 4 4 4 4 4 4 4 4 3 3 3 3 3 3 3 4 4 3
5 7 8 8 4 6 10 13 10 6 6 7 7 6 6 6 6 5 4 4 4 5 5 6 6 6 6 5 4 3 3 3 3 4 4 4 4 4 4 3 3 4 3 3 4 4 4 3 3
7 9 11 10 6 8 12 14 11 7 6 7 6 6 5 6 5 3 2 2 3 3 4 5 5 5 5 4 4 4 4 3 3 3 4 4 4 5 4 3 4 4 3 4 4 4 5 3 3
7 10 11 8 5 7 11 14 10 5 4 4 5 6 6 5 4 3 2 1 3 3 4 5 5 6 6 5 5 4 4 3 3 3 4 5 5 5 4 4 4 4 4 4 4 4 4 3 3
8 9 10 10 9 6 8 9 6 3 2 3 5 5 5 5 4 3 2 2 2 3 4 4 5 6 6 5 4 4 4 3 3 3 3 4 5 5 5 5 5 5 5 5 5 5 5 4 4
8 6 9 10 8 6 4 6 4 2 3 4 6 6 6 5 4 3 3 3 3 3 3 4 4 5 6 6 5 6 5 4 4 4 4 4 5 5 5 5 5 5 5 5 5 5 5 5 5
6 8 9 10 9 9 7 7 4 1 3 6 7 7 7 6 5 4 4 3 3 2 2 2 3 4 6 6 6 6 5 4 3 4 4 4 3 4 4 4 5 5 4 5 6 6 6 6 6
5 6 6 6 6 8 8 8 5 2 4 6 7 8 8 7 6 6 6 5 4 3 1 1 2 3 5 6 6 6 6 5 4 4 4 4 3 3 4 4 4 5 4 5 6 6 7 6 7
4 4 3 4 5 6 2 5 3 4 5 6 8 9 8 8 7 7 7 6 5 4 3 2 1 2 3 4 5 5 5 5 5 5 5 4 3 3 4 4 4 4 5 5 6 6 6 7 7
4 3 4 5 6 5 3 5 0 5 7 8 8 9 9 9 8 8 7 7 5 4 4 3 2 2 2 3 3 3 4 4 4 4 4 4 4 4 4 4 4 5 5 5 6 5 6 6 7
3 3 4 5 6 6 4 3 1 6 9 10 11 11 11 10 9 9 9 8 7 5 4 3 3 2 1 1 2 2 3 3 3 4 4 4 4 3 4 5 5 5 5 5 5 5 6 6 6
3 3 3 4 5 6 5 4 3 6 9 11 12 12 12 11 10 10 9 9 7 6 5 4 3 2 2 1 1 1 2 3 3 3 4 4 4 4 5 5 5 5 5 5 5 5 5 6 5
3 2 3 4 5 5 5 2 4 5 7 10 11 12 12 11 11 10 10 9 8 7 6 5 4 3 3 2 1 2 2 2 2 3 3 3 3 4 4 5 5 5 5 5 6 6 6 6 6
2 3 2 3 4 5 5 3 5 7 8 9 11 11 11 11 10 10 10 10 8 8 7 6 5 4 4 3 2 2 2 2 2 2 3 3 3 4 4 4 5 5 5 6 6 6 6 6 6
Wind_Direction
102 167 211 216 205 216 228 212 207 182 190 198 195 214 225 226 234 47 79 143 151 154 154 153 146 141 137 133 130 128 124 120 120 120 122 125 128 125 124 124 128 127 123 122 120 115 116 113 113
144 198 209 218 225 224 221 207 204 199 147 153 185 215 222 227 305 71 126 149 156 154 154 151 144 142 139 135 131 129 128 126 124 121 124 126 129 128 126 123 129 131 130 124 118 114 115 117 117
140 242 215 209 226 236 217 175 200 182 177 192 190 220 243 222 144 129 123 156 158 154 153 144 142 142 139 136 134 132 131 130 129 127 126 128 127 126 129 123 123 123 125 124 124 121 119 119 118
206 179 202 227 229 238 249 150 165 180 187 207 214 205 197 29 45 101 139 159 158 154 154 145 144 142 138 137 136 132 132 133 133 132 128 128 126 125 126 124 121 122 124 124 124 125 124 123 121
209 210 212 228 239 236 237 245 210 207 192 193 215 227 201 131 91 124 148 157 158 154 154 150 148 144 141 139 137 135 133 135 136 132 129 127 125 122 120 119 117 119 125 129 126 125 124 123 123
184 213 226 237 235 234 231 221 213 226 219 207 219 232 216 140 150 149 152 160 158 155 153 149 141 141 142 140 137 136 135 136 137 135 131 126 125 125 125 122 120 121 124 128 133 133 130 129 127
212 216 237 244 245 241 224 201 220 229 226 222 226 228 198 171 164 156 158 160 158 155 154 150 152 148 144 142 141 141 139 135 137 137 136 129 124 127 130 128 128 125 125 124 131 134 131 130 128
223 215 230 234 240 243 203 193 232 239 243 238 226 233 225 169 155 159 158 161 161 164 165 161 160 161 159 155 144 144 141 137 137 139 138 135 135 132 132 136 133 130 125 126 129 133 136 133 129
210 226 235 230 233 236 190 209 217 246 235 222 228 266 336 140 157 165 168 173 176 179 181 176 173 169 165 162 150 148 139 133 142 150 142 153 164 159 150 138 130 130 129 126 129 138 141 142 137
210 229 238 241 241 254 221 231 232 221 235 235 229 239 215 167 177 185 191 192 192 193 189 188 184 177 171 167 163 161 156 151 164 169 167 175 176 164 156 136 140 141 140 136 129 137 148 159 157
210 233 240 243 255 269 249 246 243 240 250 249 247 235 203 194 196 202 206 205 202 199 195 193 191 184 178 168 167 164 166 161 168 172 176 175 172 161 160 159 157 160 158 157 149 162 173 172 165
218 235 243 256 257 257 253 254 252 244 258 286 271 256 216 213 213 214 215 213 208 203 202 198 193 190 186 183 175 172 169 164 166 173 182 180 170 171 168 167 170 169 169 167 174 176 178 175 174
228 240 247 255 264 262 257 254 259 258 266 274 269 244 230 229 228 227 225 223 215 210 207 203 196 195 191 189 188 181 177 173 171 178 184 190 182 181 174 171 174 177 174 175 178 182 180 178 176
237 246 257 261 258 254 259 264 252 260 263 258 253 249 243 237 235 232 227 225 221 218 213 205 201 199 194 194 194 189 182 177 179 182 182 190 187 182 178 176 174 179 183 181 181 183 181 178 176
248 252 256 249 251 250 267 262 243 257 259 261 259 256 253 249 242 236 230 227 225 221 215 206 202 198 197 199 200 194 185 182 185 185 184 184 185 186 181 181 181 179 182 179 177 178 174 174 173
244 246 250 240 243 243 249 262 260 268 256 260 262 260 258 254 249 244 238 232 227 221 214 207 201 199 200 198 199 197 191 189 191 187 184 185 186 185 181 181 185 176 173 172 177 178 177 177 180
233 256 263 269 238 255 247 266 285 287 265 265 266 263 259 260 260 254 245 235 225 217 209 205 202 201 199 195 194 196 193 195 192 187 186 187 189 187 182 183 185 183 175 174 180 181 179 181 179
268 272 271 274 283 266 259 265 281 284 272 272 274 273 267 264 263 261 255 238 222 214 208 207 203 202 197 193 189 189 188 194 191 191 189 187 185 187 184 183 187 188 186 183 183 176 175 180 176
268 272 278 280 289 276 265 272 280 291 279 280 284 285 280 277 283 284 273 239 218 211 208 208 204 201 195 195 194 191 195 196 193 192 190 190 187 186 184 184 186 192 198 197 187 178 169 173 170
262 270 279 286 286 277 274 274 275 277 282 290 299 297 292 294 304 300 283 253 224 219 214 210 207 201 201 201 196 194 189 199 199 194 192 194 190 187 186 187 191 194 197 195 189 182 184 182 185
267 266 276 286 303 266 278 268 244 241 286 323 321 317 313 304 302 304 293 274 241 230 223 215 210 206 204 195 184 178 176 184 192 197 200 205 199 194 190 193 194 196 198 199 196 197 196 192 195
278 276 278 279 280 269 263 271 255 280 338 348 342 341 336 332 327 321 313 299 287 259 238 225 213 207 199 188 186 185 194 202 208 200 198 201 204 203 198 198 200 201 205 205 202 203 205 200 199
283 301 278 266 260 263 242 250 264 334 329 343 347 351 354 352 350 348 340 324 312 292 252 231 214 212 198 193 191 192 203 208 199 192 191 194 198 199 201 203 202 206 211 213 208 205 206 206 207
302 294 272 241 237 246 237 236 268 349 324 336 350 355 357 358 358 357 355 355 353 346 321 259 208 218 203 197 197 198 202 200 194 191 192 193 195 198 202 204 208 210 212 214 213 212 210 211 210
338 314 287 251 227 240 212 234 269 17 3 355 356 355 359 1 1 359 358 356 359 358 351 329 271 238 208 198 201 206 207 205 204 203 201 200 204 206 206 204 210 211 213 213 212 215 216 215 213
307 287 271 272 267 274 242 239 40 33 23 16 7 1 2 4 2 357 352 349 351 351 347 346 324 292 228 203 207 214 212 209 210 212 213 213 213 217 212 206 207 210 211 212 212 217 220 220 219
307 279 290 275 277 265 249 244 291 11 11 10 5 2 1 359 357 354 350 347 346 347 344 335 325 316 269 219 211 217 221 219 217 217 217 219 218 220 215 213 211 211 211 212 215 220 219 221 224
330 321 266 252 263 263 260 262 307 351 358 359 358 356 352 350 349 350 349 346 343 341 338 336 329 321 306 275 239 228 225 223 218 217 221 221 219 216 216 217 215 215 214 214 215 221 221 220 225
353 345 295 263 265 268 272 283 19 355 353 350 351 350 347 349 348 346 344 342 342 343 344 343 342 340 332 305 274 248 241 232 226 223 228 228 225 221 220 219 218 218 218 218 218 221 218 220 223
344 335 309 278 277 262 270 286 28 4 354 349 346 346 345 348 349 346 345 346 347 347 346 345 343 339 328 310 293 272 261 247 239 238 238 236 234 231 228 225 223 225 223 223 222 223 223 223 223
Height
1515 1516 1517 1520 1519 1515 1511 1510 1512 1514 1515 1517 1518 1518 1515 1515 1516 1520 1520 1518 1519 1520 1522 1524 1526 1528 1529 1530 1531 1533 1534 1534 1535 1536 1536 1537 1537 1538 1539 1539 1540 1540 1541 1541 1542 1542 1543 1543 1544
1516 1517 1520 1520 1514 1511 1509 1509 1512 1513 1516 1518 1519 1518 1517 1517 1518 1518 1517 1517 1519 1521 1522 1524 1526 1527 1529 1530 1531 1532 1533 1534 1535 1536 1536 1537 1537 1538 1539 1539 1540 1540 1541 1541 1542 1543 1543 1544 1544
1517 1518 1520 1516 1512 1507 1507 1510 1511 1515 1517 1518 1518 1518 1518 1517 1518 1517 1517 1517 1519 1521 1522 1524 1525 1527 1528 1530 1531 1532 1533 1534 1535 1536 1536 1537 1538 1538 1539 1539 1539 1540 1541 1542 1542 1543 1544 1544 1545
1518 1520 1520 1515 1511 1510 1510 1511 1514 1515 1517 1518 1518 1517 1517 1517 1517 1517 1516 1518 1519 1521 1522 1524 1525 1526 1528 1529 1530 1531 1533 1533 1534 1535 1536 1537 1537 1538 1538 1539 1539 1540 1541 1542 1542 1543 1544 1545 1545
1518 1519 1516 1512 1510 1510 1512 1514 1516 1514 1515 1516 1517 1515 1516 1516 1515 1516 1516 1518 1519 1520 1522 1523 1525 1526 1527 1528 1529 1531 1532 1533 1534 1534 1535 1536 1537 1537 1538 1539 1539 1540 1540 1541 1542 1543 1544 1545 1546
1519 1517 1512 1508 1507 1510 1512 1515 1515 1514 1514 1516 1516 1515 1515 1515 1515 1515 1516 1517 1519 1520 1521 1522 1524 1525 1527 1528 1529 1529 1531 1532 1533 1534 1534 1535 1536 1537 1538 1539 1539 1540 1540 1541 1542 1543 1544 1545 1546
1518 1514 1509 1507 1507 1508 1511 1514 1514 1512 1513 1514 1515 1514 1514 1514 1514 1514 1516 1517 1518 1520 1521 1522 1523 1524 1526 1527 1527 1528 1530 1531 1532 1533 1534 1535 1536 1536 1537 1538 1539 1539 1540 1541 1542 1542 1543 1544 1545
1516 1515 1511 1509 1508 1507 1511 1513 1513 1513 1512 1514 1514 1513 1513 1514 1513 1514 1515 1516 1517 1519 1520 1521 1522 1523 1524 1525 1526 1527 1529 1530 1530 1531 1533 1533 1534 1535 1536 1537 1538 1539 1540 1540 1541 1542 1543 1544 1545
1516 1515 1507 1506 1508 1507 1511 1511 1512 1512 1512 1512 1512 1512 1512 1512 1512 1513 1514 1515 1516 1517 1518 1520 1521 1522 1523 1524 1525 1526 1527 1528 1529 1530 1531 1532 1533 1534 1535 1536 1537 1538 1539 1539 1540 1541 1542 1543 1544
1515 1510 1506 1508 1509 1509 1511 1511 1511 1511 1510 1510 1511 1510 1510 1510 1511 1512 1512 1513 1514 1515 1517 1518 1519 1520 1521 1522 1523 1524 1525 1527 1528 1529 1529 1530 1532 1533 1533 1534 1535 1536 1537 1538 1539 1540 1541 1542 1543
1512 1508 1509 1510 1511 1511 1511 1511 1511 1510 1507 1508 1509 1509 1509 1509 1509 1510 1511 1511 1512 1514 1515 1516 1517 1518 1519 1520 1521 1522 1524 1524 1526 1527 1528 1529 1530 1530 1531 1532 1534 1535 1535 1536 1537 1539 1540 1541 1542
1511 1510 1511 1510 1511 1511 1510 1510 1510 1508 1507 1507 1507 1507 1507 1507 1507 1507 1508 1509 1510 1511 1512 1513 1515 1516 1517 1518 1519 1520 1521 1522 1523 1524 1525 1526 1527 1528 1529 1530 1531 1532 1533 1534 1535 1537 1538 1539 1540
1510 1509 1510 1510 1510 1510 1510 1509 1508 1506 1506 1505 1505 1504 1505 1505 1505 1506 1506 1507 1508 1509 1510 1511 1512 1513 1515 1516 1517 1518 1519 1520 1521 1522 1523 1524 1525 1526 1527 1528 1529 1530 1531 1532 1533 1535 1536 1537 1538
1509 1509 1509 1509 1509 1509 1508 1506 1506 1502 1504 1503 1502 1502 1502 1502 1502 1503 1503 1504 1505 1506 1507 1508 1510 1511 1512 1513 1514 1516 1517 1517 1519 1519 1520 1521 1522 1523 1525 1526 1527 1528 1529 1530 1531 1533 1534 1535 1536
1510 1509 1507 1506 1507 1507 1507 1502 1501 1500 1501 1500 1500 1499 1499 1499 1499 1499 1500 1501 1502 1503 1505 1505 1506 1508 1509 1510 1512 1513 1514 1515 1516 1517 1518 1519 1520 1521 1523 1524 1524 1526 1527 1528 1529 1530 1532 1533 1534
1508 1505 1501 1502 1505 1505 1507 1495 1496 1498 1498 1497 1497 1496 1496 1496 1496 1496 1497 1498 1499 1500 1501 1502 1503 1505 1506 1507 1508 1509 1511 1512 1513 1514 1515 1517 1518 1519 1520 1521 1522 1523 1524 1525 1527 1528 1529 1531 1532
1504 1501 1499 1500 1503 1503 1502 1494 1494 1496 1496 1495 1494 1494 1493 1493 1493 1493 1494 1495 1496 1497 1498 1499 1500 1502 1503 1504 1505 1506 1507 1509 1510 1511 1512 1514 1515 1517 1518 1519 1520 1521 1522 1523 1524 1526 1527 1529 1530
1502 1501 1500 1500 1500 1502 1499 1494 1493 1494 1494 1492 1491 1491 1491 1490 1490 1491 1491 1492 1493 1494 1495 1496 1498 1499 1500 1501 1502 1503 1504 1506 1507 1508 1509 1511 1512 1514 1515 1516 1518 1519 1520 1521 1522 1523 1525 1526 1528
1506 1504 1501 1499 1501 1501 1495 1491 1490 1491 1491 1490 1489 1489 1488 1488 1488 1488 1488 1488 1489 1491 1492 1493 1494 1496 1497 1498 1499 1500 1501 1502 1504 1505 1507 1508 1510 1511 1512 1513 1515 1516 1517 1518 1520 1521 1522 1524 1525
1506 1504 1500 1499 1501 1500 1494 1489 1487 1488 1489 1489 1488 1487 1487 1486 1485 1485 1485 1485 1486 1487 1489 1490 1491 1492 1494 1495 1496 1497 1498 1499 1501 1502 1504 1505 1507 1508 1509 1511 1512 1513 1514 1516 1517 1518 1520 1521 1523
1504 1503 1500 1500 1500 1498 1495 1483 1482 1485 1487 1488 1487 1486 1485 1484 1484 1483 1482 1483 1483 1484 1485 1486 1488 1489 1490 1492 1493 1495 1496 1497 1498 1499 1501 1503 1504 1505 1507 1508 1509 1510 1512 1513 1514 1516 1517 1518 1520
1502 1503 1503 1502 1499 1491 1493 1483 1476 1482 1484 1485 1486 1485 1484 1483 1482 1481 1480 1480 1480 1482 1483 1484 1485 1486 1487 1489 1490 1491 1492 1494 1495 1496 1498 1500 1501 1502 1504 1505 1506 1507 1509 1510 1511 1513 1514 1516 1517
1505 1505 1502 1499 1496 1493 1489 1488 1477 1482 1484 1485 1487 1486 1485 1483 1481 1480 1479 1479 1479 1479 1480 1481 1482 1483 1484 1486 1487 1489 1490 1492 1493 1494 1495 1496 1498 1499 1500 1502 1503 1504 1505 1507 1508 1510 1511 1512 1514
1508 1503 1498 1496 1494 1490 1483 1484 1477 1484 1488 1487 1487 1487 1485 1483 1481 1480 1478 1478 1477 1477 1477 1478 1479 1479 1481 1483 1484 1486 1487 1488 1490 1491 1492 1493 1494 1496 1497 1498 1500 1501 1502 1503 1505 1506 1508 1509 1510
1507 1502 1495 1490 1486 1479 1484 1485 1486 1490 1492 1491 1490 1488 1486 1484 1481 1479 1477 1476 1475 1475 1475 1475 1476 1477 1478 1480 1481 1483 1484 1485 1486 1487 1489 1490 1491 1492 1493 1494 1496 1497 1499 1500 1501 1503 1504 1505 1506
1508 1505 1502 1497 1485 1478 1486 1485 1489 1494 1495 1494 1492 1489 1486 1484 1481 1479 1477 1476 1475 1474 1473 1473 1473 1474 1475 1476 1478 1479 1481 1482 1483 1484 1485 1486 1487 1488 1490 1491 1492 1494 1495 1496 1498 1499 1500 1501 1502
1509 1506 1506 1502 1494 1491 1483 1486 1491 1494 1494 1494 1492 1489 1487 1484 1482 1479 1477 1475 1474 1472 1471 1471 1471 1471 1472 1473 1475 1476 1477 1478 1479 1481 1482 1483 1484 1485 1486 1487 1488 1490 1491 1492 1494 1494 1496 1497 1498
1515 1511 1508 1503 1497 1488 1483 1486 1489 1495 1495 1494 1493 1490 1488 1485 1482 1479 1477 1475 1473 1472 1471 1470 1470 1469 1470 1471 1472 1473 1474 1475 1476 1477 1478 1479 1480 1481 1482 1483 1484 1486 1487 1488 1489 1490 1491 1493 1494
1516 1515 1511 1505 1501 1495 1489 1491 1499 1500 1499 1498 1495 1493 1490 1486 1483 1480 1477 1474 1472 1471 1469 1468 1467 1467 1467 1468 1469 1470 1471 1472 1473 1474 1475 1476 1477 1477 1478 1479 1480 1481 1482 1484 1485 1486 1487 1488 1489
1518 1517 1514 1511 1505 1502 1497 1499 1503 1503 1502 1500 1497 1494 1490 1487 1483 1480 1477 1474 1471 1469 1467 1466 1465 1465 1465 1466 1466 1467 1468 1469 1470 1470 1471 1472 1473 1474 1474 1475 1476 1477 1478 1479 1481 1481 1482 1483 1484